NUDT-PHONESAT (40900 NORAD) Tracking and Keplerian Element Data

This shows tracking and keplerian element data for the satellite.

Feedback or suggestion? Click here.




ElementValue
Catalog40900
NameNUDT-PHONESAT
Epoch Orbit39873
Epoch Day325.16040906
Epoch Year2022
RAAN344.8613
Inclination97.3891
Eccentricity0.001009
Argument of Perigee81.7471
Mean Anonmoly350.911
Mean Motion15.46689366
Decay Rate0.00044538
L11 40900U 15049B 22325.16040906 .00044538 00000+0 88807-3 0 9999
L22 40900 97.3891 344.8613 0010090 81.7471 350.9110 15.46689366398732



Live tracking and technical data element details for NUDT-PHONESAT (NORAD 40900). NUDT-PHONESAT can be tracked NOW for your location showing map with azimuth and elevation plus other details from your city location.







IsCatalogInMostPopularTable: catalog: 40900, numindb: 406
Update: records affected: 1



GetName: 40900 NUDT-PHONESAT

Hit Count: updated at: Fri, 02 Dec 2022 13:59:41 GMT